Tracking 21094 objects as of 12-Aug-2020
HD Live streaming from Space Station
objects crossing your sky now
Track the most recent launched group of Starlink satellites

TDO SPACECRAFT

Track TDO SPACECRAFT now!


NORAD ID: 44482
Int'l Code: 2019-051B
Perigee: 264.6 km
Apogee: 35,147.4 km
Inclination: 25.8 °
Period: 619.7 minutes
Semi major axis: 24076 km
RCS: Unknown
Launch date: August 8, 2019
Source: United States (US)
Launch site: AIR FORCE EASTERN TEST RANGE (AFETR)
aabbcc
Your satellite tracking list
Your tracking list is empty




NASA's NSSDC Master Catalog

Two Line Element Set (TLE):
1 44482U 19051B   20224.10200142 +.00000723 +00000-0 +21472-3 0  9999
2 44482 025.8367 157.6101 7244024 059.0231 352.2749 02.32380439008564
Source of the keplerian elements: AFSPC